Showing default

QIANFAN-62, 62792

Orbit data source: Space-Track

QIANFAN-62, 62792 is a Chinese payload satellite in LEO that was launched on Thu, 23 Jan 2025 UTC via a CHANG ZHENG 6A launch vehicle from the Taiyaun Space Center, China (TSC). Payload-class satellites include a variety of spacecraft equipped with specific instruments for various scientific and technological missions. These include communications satellites like Starlink; space stations such as the ISS; scientific satellites like the Hubble; Earth observation satellites from companies like Planet Labs, Umbra, and HawkEye 360; GPS; miniature CubeSats for education and research; and military/defense satellites.

Loading next visibility...
Identifier
62792, 2025-016H
Orbit
LEO
Country
Flag of CNCN / PRC
Related business
Manufacturer
SECM
Mission
Operational Commercial Communications
Bus & Motor
QIANFAN, Unknown motor
Mass
267 kg wet, ~267 kg dry
Launch date (UTC)
2025-01-23 (8 months ago)
Launch vehicle
CHANG ZHENG 6A
Launch site
Taiyaun Space Center, China (TSC)
Object type
Payload
Rocket body
Debris
Shape & HBR
Box + 1 Pan, 5.0 m
Radar Cross Section
13.200 m², Large (>1 m²)

Expand to show TLE details & history
Last TLE update: 8 hours ago

TLE from 8 hours ago
0 QIANFAN-62
1 62792U 25016H   25260.90193019  .00000047  00000-0  54694-4 0  9990
2 62792  88.9762 111.9828 0014540 228.0198 131.9716 13.50965165 35649
Epoch: 2025-09-17T21:38Z
TLE epoch observation values (Epoch: 2025-09-17T21:38:46.768Z)
Latitude
0.00005°
Longitude
150.21671°
Altitude
1,078.914 km
Speed
7.309 km/s
True Right ascension
07h 27m 55s
True Declination
0° 00' 00"
Sunlit
Object was in daylight at epoch
Visualization orbit readout
Latitude
Unknown
Longitude
Unknown
Altitude
Unknown
Speed
Unknown
Apparent Right ascension
Unknown
Apparent Declination
Unknown
Sunlit
N/A
Visualization observer readout
Local Sidereal Time
22:02:44
Azimuth
Unknown
Elevation
Unknown
Doppler factor
Unknown
Orbital elements
Apogee altitude
1,076.584 km
Perigee altitude
1,054.937 km
Semi-major axis
7,443.898 km
Eccentricity
0.00145
Inclination
88.9762°
RAAN
111.9828°
Arg. of periapsis
228.0198°
True anomaly
132.09532°
Mean anomaly
131.9716°
Eccentric anomaly
132.03348°
Mean motion
3.37942 °/min
Orbital period
106.53 mins
BSTAR
0.000054694
Loading maneuver chart data...
Computing Atmospheric mass density...
Loading historical data...
Loading historical data...
Loading historical data...
Loading historical data...
Loading historical data...
Loading historical data...
Loading historical data...

Documentation

Showing up to 5 results
|